When you browse on this site, cookies collect data to enhance your experience and personalize the content and advertising you see.
Visit our Privacy Policy to learn more. By continuing to use the site, you agree to this use of cookies and data.
  • In Hungary
  • List of Countries
  • For 7 days
  • Water Temperature
  • Satellite Maps
  • Weather Map
  • News
  • Weather Widgets
  • user-avatar
    Login

    Hourly Weather Ladnoe

    Today, 16 January, Wednesday

    Time Temperature Precipitation Wind Pressure Humidity
    00:00 -9°C° 0 mm 3 mps 723 mmHg 92%
    01:00 -9°C° 0 mm 3 mps 723 mmHg 93%
    02:00 -9°C° 0 mm 3 mps 723 mmHg 93%
    03:00 -9°C° 0 mm 3 mps 723 mmHg 93%
    04:00 -9°C° 0 mm 3 mps 724 mmHg 93%
    05:00 -9°C° 0 mm 3 mps 724 mmHg 93%
    06:00 -10°C° 0 mm 3 mps 724 mmHg 94%
    07:00 -10°C° 0 mm 3 mps 724 mmHg 94%
    08:00 -12°C° 0 mm 3 mps 724 mmHg 95%
    09:00 -10°C° 0 mm 3 mps 725 mmHg 94%
    10:00 -10°C° 0 mm 3 mps 725 mmHg 94%
    11:00 -9°C° 0 mm 3 mps 725 mmHg 94%
    12:00 -9°C° 0 mm 3 mps 725 mmHg 93%
    13:00 -8°C° 0 mm 3 mps 726 mmHg 93%
    14:00 -8°C° 0 mm 3 mps 726 mmHg 92%
    15:00 -8°C° 0 mm 3 mps 726 mmHg 93%
    16:00 -8°C° 0 mm 3 mps 727 mmHg 93%
    17:00 -8°C° 0 mm 3 mps 727 mmHg 94%
    18:00 -8°C° 0 mm 3 mps 727 mmHg 93%
    19:00 -8°C° 0 mm 3 mps 728 mmHg 93%
    20:00 -8°C° 0 mm 3 mps 728 mmHg 92%
    21:00 -8°C° 0 mm 3 mps 728 mmHg 92%
    22:00 -9°C° 0 mm 3 mps 729 mmHg 91%
    23:00 -9°C° 0 mm 3 mps 729 mmHg 91%

    Tomorrow, 17 January, Thursday

    Time Temperature Precipitation Wind Pressure Humidity
    00:00 -10°C° 0 mm 3 mps 729 mmHg 92%
    01:00 -10°C° 0 mm 3 mps 729 mmHg 93%
    02:00 -12°C° 0 mm 3 mps 730 mmHg 94%
    03:00 -12°C° 0 mm 3 mps 729 mmHg 94%
    04:00 -10°C° 0 mm 3 mps 729 mmHg 94%
    05:00 -10°C° 0 mm 3 mps 729 mmHg 94%
    06:00 -10°C° 0.3 mm 4 mps 728 mmHg 93%
    07:00 -10°C° 0.3 mm 4 mps 728 mmHg 93%
    08:00 -10°C° 0.3 mm 5 mps 727 mmHg 92%
    09:00 -8°C° 0.5 mm 5 mps 727 mmHg 92%
    10:00 -7°C° 0.5 mm 5 mps 726 mmHg 91%
    11:00 -6°C° 0.5 mm 6 mps 726 mmHg 91%
    12:00 -5°C° 0.4 mm 6 mps 725 mmHg 90%
    13:00 -4°C° 0.4 mm 6 mps 724 mmHg 90%
    14:00 -3°C° 0.4 mm 6 mps 724 mmHg 89%
    15:00 -2°C° 0.4 mm 6 mps 723 mmHg 89%
    16:00 -2°C° 0.4 mm 6 mps 722 mmHg 89%
    17:00 -2°C° 0.4 mm 6 mps 722 mmHg 88%
    18:00 -2°C° 0.6 mm 7 mps 722 mmHg 88%
    19:00 -2°C° 0.6 mm 7 mps 721 mmHg 87%
    20:00 -2°C° 0.6 mm 7 mps 721 mmHg 86%
    21:00 -2°C° 0.1 mm 7 mps 721 mmHg 85%
    22:00 -2°C° 0.1 mm 7 mps 722 mmHg 84%
    23:00 -2°C° 0.1 mm 6 mps 722 mmHg 84%

    Day after tomorrow, 18 January, Friday

    Time Temperature Precipitation Wind Pressure Humidity
    00:00 -2°C° 0.1 mm 7 mps 722 mmHg 83%
    01:00 -2°C° 0.1 mm 7 mps 722 mmHg 83%
    02:00 -2°C° 0.1 mm 7 mps 722 mmHg 83%
    03:00 -2°C° 0.1 mm 7 mps 722 mmHg 83%
    04:00 -2°C° 0.1 mm 7 mps 722 mmHg 82%
    05:00 -2°C° 0.1 mm 7 mps 722 mmHg 82%
    06:00 -2°C° 0.2 mm 7 mps 722 mmHg 83%
    07:00 -2°C° 0.2 mm 7 mps 723 mmHg 84%
    08:00 -2°C° 0.2 mm 6 mps 723 mmHg 84%
    09:00 -2°C° 0.3 mm 6 mps 724 mmHg 86%
    10:00 -1°C° 0.3 mm 5 mps 724 mmHg 87%
    11:00 -1°C° 0.3 mm 5 mps 724 mmHg 89%
    12:00 -2°C° 0.4 mm 4 mps 724 mmHg 90%
    13:00 -2°C° 0.4 mm 3 mps 724 mmHg 92%
    14:00 -2°C° 0.4 mm 3 mps 724 mmHg 93%
    15:00 -5°C° 0.6 mm 3 mps 725 mmHg 93%
    16:00 -6°C° 0.6 mm 3 mps 725 mmHg 93%
    17:00 -8°C° 0.6 mm 3 mps 726 mmHg 93%
    18:00 -8°C° 0.3 mm 3 mps 726 mmHg 92%
    19:00 -9°C° 0.3 mm 3 mps 727 mmHg 91%
    20:00 -10°C° 0.3 mm 4 mps 728 mmHg 90%
    21:00 -10°C° 0 mm 4 mps 728 mmHg 90%
    22:00 -11°C° 0 mm 4 mps 729 mmHg 90%
    23:00 -11°C° 0 mm 4 mps 729 mmHg 90%

    19 January, Saturday

    Time Temperature Precipitation Wind Pressure Humidity
    00:00 -11°C° 0 mm 4 mps 730 mmHg 89%
    01:00 -11°C° 0 mm 4 mps 730 mmHg 89%
    02:00 -12°C° 0 mm 4 mps 731 mmHg 89%
    03:00 -11°C° 0.1 mm 4 mps 731 mmHg 89%
    04:00 -10°C° 0.1 mm 4 mps 731 mmHg 88%
    05:00 -10°C° 0.1 mm 4 mps 732 mmHg 88%
    06:00 -9°C° 0.1 mm 4 mps 732 mmHg 88%
    07:00 -9°C° 0.1 mm 4 mps 732 mmHg 88%
    08:00 -9°C° 0.1 mm 4 mps 733 mmHg 88%
    09:00 -9°C° 0.1 mm 4 mps 733 mmHg 87%
    10:00 -8°C° 0.1 mm 5 mps 734 mmHg 85%
    11:00 -8°C° 0.1 mm 5 mps 734 mmHg 84%
    12:00 -8°C° 0.2 mm 5 mps 734 mmHg 85%
    13:00 -7°C° 0.2 mm 5 mps 735 mmHg 86%
    14:00 -7°C° 0.2 mm 5 mps 735 mmHg 87%
    15:00 -7°C° 0.1 mm 5 mps 735 mmHg 87%
    16:00 -8°C° 0.1 mm 5 mps 735 mmHg 87%
    17:00 -8°C° 0.1 mm 5 mps 736 mmHg 87%
    18:00 -8°C° 0 mm 5 mps 736 mmHg 87%
    19:00 -8°C° 0 mm 4 mps 736 mmHg 88%
    20:00 -8°C° 0 mm 4 mps 736 mmHg 88%
    21:00 -8°C° 0 mm 4 mps 736 mmHg 88%
    22:00 -8°C° 0 mm 4 mps 736 mmHg 89%
    23:00 -8°C° 0 mm 4 mps 737 mmHg 89%

    20 January, Sunday

    Time Temperature Precipitation Wind Pressure Humidity
    00:00 -9°C° 0 mm 4 mps 737 mmHg 90%
    01:00 -9°C° 0 mm 4 mps 737 mmHg 91%
    02:00 -9°C° 0 mm 4 mps 737 mmHg 92%
    03:00 -8°C° 0 mm 3 mps 737 mmHg 92%
    04:00 -8°C° 0 mm 3 mps 737 mmHg 92%
    05:00 -8°C° 0 mm 3 mps 737 mmHg 92%
    06:00 -9°C° 0 mm 3 mps 737 mmHg 93%
    07:00 -9°C° 0 mm 3 mps 737 mmHg 94%
    08:00 -8°C° 0 mm 2 mps 737 mmHg 95%
    09:00 -9°C° 0 mm 3 mps 737 mmHg 93%
    10:00 -8°C° 0 mm 3 mps 737 mmHg 91%
    11:00 -7°C° 0 mm 3 mps 737 mmHg 89%
    12:00 -7°C° 0.1 mm 3 mps 737 mmHg 89%
    13:00 -7°C° 0.1 mm 3 mps 737 mmHg 89%
    14:00 -7°C° 0.1 mm 3 mps 737 mmHg 90%
    15:00 -8°C° 0.1 mm 3 mps 737 mmHg 91%
    16:00 -8°C° 0.1 mm 3 mps 737 mmHg 92%
    17:00 -8°C° 0.1 mm 2 mps 737 mmHg 94%
    18:00 -9°C° 0 mm 2 mps 737 mmHg 95%
    19:00 -9°C° 0 mm 2 mps 738 mmHg 96%
    20:00 -10°C° 0 mm 2 mps 738 mmHg 97%
    21:00 -10°C° 0 mm 2 mps 738 mmHg 97%
    22:00 -10°C° 0 mm 2 mps 738 mmHg 97%
    23:00 -10°C° 0 mm 2 mps 739 mmHg 97%

    21 January, Monday

    Time Temperature Precipitation Wind Pressure Humidity
    00:00 -9°C° 0 mm 1 mps 739 mmHg 97%
    01:00 -10°C° 0 mm 1 mps 739 mmHg 97%
    02:00 -10°C° 0 mm 1 mps 739 mmHg 97%
    03:00 -10°C° 0 mm 1 mps 739 mmHg 97%
    04:00 -10°C° 0 mm 1 mps 740 mmHg 97%
    05:00 -10°C° 0 mm 1 mps 740 mmHg 97%
    06:00 -10°C° 0 mm 1 mps 740 mmHg 97%
    07:00 -10°C° 0 mm 1 mps 741 mmHg 97%
    08:00 -11°C° 0 mm 1 mps 741 mmHg 98%
    09:00 -10°C° 0 mm 1 mps 741 mmHg 97%
    10:00 -12°C° 0 mm 2 mps 742 mmHg 96%
    11:00 -10°C° 0 mm 2 mps 742 mmHg 95%
    12:00 -12°C° 0 mm 2 mps 742 mmHg 94%
    13:00 -12°C° 0 mm 2 mps 743 mmHg 93%
    14:00 -13°C° 0 mm 2 mps 743 mmHg 93%
    15:00 -14°C° 0 mm 2 mps 743 mmHg 94%
    16:00 -16°C° 0 mm 2 mps 744 mmHg 96%
    17:00 -17°C° 0 mm 2 mps 744 mmHg 97%
    18:00 -18°C° 0 mm 2 mps 744 mmHg 97%
    19:00 -19°C° 0 mm 2 mps 745 mmHg 98%
    20:00 -20°C° 0 mm 2 mps 745 mmHg 98%
    21:00 -21°C° 0 mm 2 mps 745 mmHg 99%
    22:00 -21°C° 0 mm 2 mps 745 mmHg 99%
    23:00 -23°C° 0 mm 2 mps 746 mmHg 99%
    Show more